Regional Weather Roundup
Issued by NWS Newport/Morehead, NC

Current Version | Previous Version | Text Only | Print | Product List | Glossary On
Versions: 1 2 3 4 5 6 7 8 9 10 11 12 13 14 15 16 17 18 19 20 21 22 23 24 25 26 27 28 29 30 31 32 33 34 35 36 37 38 39 40 41 42 43 44 45 46 47 48 49 50
189
ASUS42 KMHX 030225
RWRMHX
WEATHER ROUNDUP FOR EASTERN NORTH CAROLINA
NATIONAL WEATHER SERVICE NEWPORT/MOREHEAD CITY NC
1000 PM EDT MON MAY 02 2016

NOTE: "FAIR" INDICATES FEW OR NO CLOUDS BELOW 12,000 FEET
WITH NO SIGNIFICANT WEATHER AND/OR OBSTRUCTIONS TO VISIBILITY

NCZ015>017-031-032-045>047-102-103-030300-
NORTH COAST

CITY           SKY/WX    TMP DP  RH WIND       PRES   REMARKS
EDENTON        CLOUDY    69  67  93 S8        29.96R
ELIZABETH CITY CLOUDY    70  66  87 SW12      29.94R
KITTY HAWK     CLOUDY    72  68  88 SW9       29.94R
MANTEO         NOT AVBL

$$

NCZ045>047-081-094-103-104-030300-
CENTRAL COAST

CITY           SKY/WX    TMP DP  RH WIND       PRES   REMARKS
FRISCO         CLOUDY    71  69  93 SW8       29.98S
SWANQUARTER    NOT AVBL

$$

NCZ095-097-098-100-101-030300-
SOUTHERN COAST

CITY           SKY/WX    TMP DP  RH WIND       PRES   REMARKS
BEAUFORT       CLOUDY    71  69  93 S10       30.00R
CEDAR ISLAND   NOT AVBL
JACKSONVILLE   CLOUDY    73  67  81 SW7       29.99R
PINEY ISLAND   NOT AVBL
WILMINGTON     MOCLDY    74  68  81 S9        30.00R


$$

NCZ011>013-027>030-043-044-078>080-089-090>093-098-030300-
COASTAL PLAIN

CITY           SKY/WX    TMP DP  RH WIND       PRES   REMARKS
AHOSKIE        CLOUDY    69  64  83 S8G17     29.93R
CLINTON        HVY RAIN  66  66 100 CALM      30.01F
ELIZABETHTOWN  LGT RAIN  67  66  96 CALM      30.01S
GOLDSBORO      LGT RAIN  66  66 100 S8        29.97F
GREENVILLE     LGT RAIN  68  64  88 SW14      29.99F
HAVELOCK       CLOUDY    73  68  84 SW9G20    30.00R
KENANSVILLE    LGT RAIN  65  64  96 CALM      30.03R
KINSTON        LGT RAIN  66  64  94 SW6       30.01R
NEW BERN       CLOUDY    73  67  81 SW12      30.00R
RICHLANDS      LGT RAIN  70  70 100 W5        30.01R
ROCKY MOUNT    LGT RAIN  68  66  93 S15G28    29.91F
WASHINGTON     LGT RAIN  70  68  94 SW14G20   29.98R
WHITEVILLE     MOCLDY    73  68  83 S3        30.00R

$$

AMZ130-135-150-152-154-156-158-170-250-252-270-ANZ085-086-088-633-658-670-030300-
MARINE OBSERVATIONS

STATION/POSITION TIME  TEMP    WIND        PRES    WAVE   SWELL
                       AIR SEA DIR/SP/G            HT/PER HT/PER
                 (UTC) (F)     (DEG/KT/KT) (MB)    (FT/S) (FT/S)
CHESAPEAKE LIGHT 0200   66     260/ 22/ 24 1013.1
64 E VA BEACH    0150   60 54  200/ 16/ 17 1013.1    4/ 6   2/11
DUCK             0200   71 65              1013.1
2 E DUCK         0111      60                N/A     3/11   2/11
OREGON INLET     0200   72 73              1014.3
13E OREGON INLT  0200      61                N/A     4/ 6   2/11
HATTERAS CG      0200   71 70              1015.2
DIAMOND BUOY     0150   75 74  220/ 16/ 17 1015.2    4/10   3/10
CAPE LOOKOUT     0200   71     200/ 11/ 13 1015.6
BEAUFORT LAB     0200   71 68              1015.0
30 SE NEW RVR IN 0125      70                N/A     3/ 5   2/11
27 SE WRIGHTSVLE 0208   73 71  200/  8/ 12 1015.7
5 SE WRIGHTSVLE  0208   72 70  210/ 12/ 14 1016.6
225 S CAPE HAT   0150   74 74  150/ 14/ 16 1019.0    4/10   3/10
41 SE CHARLESTON 0150   76 75  180/  8/ 10 1015.4    3/ 9   2/ 9

$$




USA.gov is the U.S. government's official web portal to all federal, state and local government web resources and services.